Year,Month,Day,Hour,Minute,Value (Times are PST for temperature in C)
2016,07,10,00,00,12.70
2016,07,10,00,01,12.70
2016,07,10,00,02,12.60
2016,07,10,00,03,12.60
2016,07,10,00,04,12.60
2016,07,10,00,05,12.60
2016,07,10,00,06,12.60
2016,07,10,00,07,12.50
2016,07,10,00,08,12.50
2016,07,10,00,09,12.50
2016,07,10,00,10,12.40
2016,07,10,00,11,12.40
2016,07,10,00,12,12.40
2016,07,10,00,13,12.40
2016,07,10,00,14,12.40
2016,07,10,00,15,12.40
2016,07,10,00,16,12.40
2016,07,10,00,17,12.40
2016,07,10,00,18,12.40
2016,07,10,00,19,12.40
2016,07,10,00,20,12.40
2016,07,10,00,21,12.40
2016,07,10,00,22,12.40
2016,07,10,00,23,12.40
2016,07,10,00,24,12.40
2016,07,10,00,25,12.40
2016,07,10,00,26,12.40
2016,07,10,00,27,12.40
2016,07,10,00,28,12.40
2016,07,10,00,29,12.40
2016,07,10,00,30,12.40
2016,07,10,00,31,12.40
2016,07,10,00,32,12.40
2016,07,10,00,33,12.40
2016,07,10,00,34,12.40
2016,07,10,00,35,12.40
2016,07,10,00,36,12.40
2016,07,10,00,37,12.40
2016,07,10,00,38,12.40
2016,07,10,00,39,12.40
2016,07,10,00,40,12.40
2016,07,10,00,41,12.40
2016,07,10,00,42,12.40
2016,07,10,00,43,12.40
2016,07,10,00,44,12.40
2016,07,10,00,45,12.40
2016,07,10,00,46,12.30
2016,07,10,00,47,12.30
2016,07,10,00,48,12.30
2016,07,10,00,49,12.30
2016,07,10,00,50,12.30
2016,07,10,00,51,12.30
2016,07,10,00,52,12.20
2016,07,10,00,53,12.20
2016,07,10,00,54,12.20
2016,07,10,00,55,12.20
2016,07,10,00,56,12.20
2016,07,10,00,57,12.20
2016,07,10,00,58,12.20
2016,07,10,00,59,12.20
2016,07,10,01,00,12.20
2016,07,10,01,01,12.20
2016,07,10,01,02,12.20
2016,07,10,01,03,12.20
2016,07,10,01,04,12.20
2016,07,10,01,05,12.20
2016,07,10,01,06,12.10
2016,07,10,01,07,12.10
2016,07,10,01,08,12.10
2016,07,10,01,09,12.10
2016,07,10,01,10,12.00
2016,07,10,01,11,12.00
2016,07,10,01,12,12.00
2016,07,10,01,13,11.90
2016,07,10,01,14,11.90
2016,07,10,01,15,11.90
2016,07,10,01,16,11.90
2016,07,10,01,17,11.80
2016,07,10,01,18,11.80
2016,07,10,01,19,11.80
2016,07,10,01,20,11.80
2016,07,10,01,21,11.80
2016,07,10,01,22,11.80
2016,07,10,01,23,11.80
2016,07,10,01,24,11.80
2016,07,10,01,25,11.80
2016,07,10,01,26,11.70
2016,07,10,01,27,11.70
2016,07,10,01,28,11.70
2016,07,10,01,29,11.70
2016,07,10,01,30,11.70
2016,07,10,01,31,11.70
2016,07,10,01,32,11.70
2016,07,10,01,33,11.60
2016,07,10,01,34,11.60
2016,07,10,01,35,11.60
2016,07,10,01,36,11.60
2016,07,10,01,37,11.60
2016,07,10,01,38,11.60
2016,07,10,01,39,11.60
2016,07,10,01,40,11.60
2016,07,10,01,41,11.60
2016,07,10,01,42,11.50
2016,07,10,01,43,11.50
2016,07,10,01,44,11.50
2016,07,10,01,45,11.50
2016,07,10,01,46,11.50
2016,07,10,01,47,11.50
2016,07,10,01,48,11.50
2016,07,10,01,49,11.40
2016,07,10,01,50,11.40
2016,07,10,01,51,11.40
2016,07,10,01,52,11.40
2016,07,10,01,53,11.40
2016,07,10,01,54,11.40
2016,07,10,01,55,11.40
2016,07,10,01,56,11.30
2016,07,10,01,57,11.30
2016,07,10,01,58,11.30
2016,07,10,01,59,11.30
2016,07,10,02,00,11.30
2016,07,10,02,01,11.30
2016,07,10,02,02,11.30
2016,07,10,02,03,11.30
2016,07,10,02,04,11.30
2016,07,10,02,05,11.30
2016,07,10,02,06,11.30
2016,07,10,02,07,11.30
2016,07,10,02,08,11.30
2016,07,10,02,09,11.30
2016,07,10,02,10,11.20
2016,07,10,02,11,11.20
2016,07,10,02,12,11.20
2016,07,10,02,13,11.20
2016,07,10,02,14,11.20
2016,07,10,02,15,11.20
2016,07,10,02,16,11.20
2016,07,10,02,17,11.10
2016,07,10,02,18,11.10
2016,07,10,02,19,11.10
2016,07,10,02,20,11.10
2016,07,10,02,21,11.10
2016,07,10,02,22,11.00
2016,07,10,02,23,11.00
2016,07,10,02,24,11.00
2016,07,10,02,25,10.90
2016,07,10,02,26,10.90
2016,07,10,02,27,10.90
2016,07,10,02,28,10.90
2016,07,10,02,29,10.90
2016,07,10,02,30,10.90
2016,07,10,02,31,10.90
2016,07,10,02,32,10.90
2016,07,10,02,33,10.90
2016,07,10,02,34,10.80
2016,07,10,02,35,10.80
2016,07,10,02,36,10.80
2016,07,10,02,37,10.80
2016,07,10,02,38,10.80
2016,07,10,02,39,10.80
2016,07,10,02,40,10.80
2016,07,10,02,41,10.80
2016,07,10,02,42,10.80
2016,07,10,02,43,10.80
2016,07,10,02,44,10.80
2016,07,10,02,45,10.80
2016,07,10,02,46,10.80
2016,07,10,02,47,10.80
2016,07,10,02,48,10.80
2016,07,10,02,49,10.80
2016,07,10,02,50,10.70
2016,07,10,02,51,10.70
2016,07,10,02,52,10.70
2016,07,10,02,53,10.70
2016,07,10,02,54,10.70
2016,07,10,02,55,10.70
2016,07,10,02,56,10.70
2016,07,10,02,57,10.70
2016,07,10,02,58,10.70
2016,07,10,02,59,10.70
2016,07,10,03,00,10.70
2016,07,10,03,01,10.70
2016,07,10,03,02,10.70
2016,07,10,03,03,10.70
2016,07,10,03,04,10.70
2016,07,10,03,05,10.70
2016,07,10,03,06,10.60
2016,07,10,03,07,10.60
2016,07,10,03,08,10.60
2016,07,10,03,09,10.60
2016,07,10,03,10,10.60
2016,07,10,03,11,10.60
2016,07,10,03,12,10.60
2016,07,10,03,13,10.60
2016,07,10,03,14,10.60
2016,07,10,03,15,10.50
2016,07,10,03,16,10.50
2016,07,10,03,17,10.50
2016,07,10,03,18,10.50
2016,07,10,03,19,10.50
2016,07,10,03,20,10.50
2016,07,10,03,21,10.40
2016,07,10,03,22,10.40
2016,07,10,03,23,10.40
2016,07,10,03,24,10.40
2016,07,10,03,25,10.40
2016,07,10,03,26,10.40
2016,07,10,03,27,10.40
2016,07,10,03,28,10.40
2016,07,10,03,29,10.40
2016,07,10,03,30,10.40
2016,07,10,03,31,10.40
2016,07,10,03,32,10.40
2016,07,10,03,33,10.30
2016,07,10,03,34,10.30
2016,07,10,03,35,10.30
2016,07,10,03,36,10.30
2016,07,10,03,37,10.30
2016,07,10,03,38,10.30
2016,07,10,03,39,10.30
2016,07,10,03,40,10.30
2016,07,10,03,41,10.30
2016,07,10,03,42,10.30
2016,07,10,03,43,10.30
2016,07,10,03,44,10.30
2016,07,10,03,45,10.30
2016,07,10,03,46,10.20
2016,07,10,03,47,10.20
2016,07,10,03,48,10.20
2016,07,10,03,49,10.20
2016,07,10,03,50,10.20
2016,07,10,03,51,10.20
2016,07,10,03,52,10.20
2016,07,10,03,53,10.20
2016,07,10,03,54,10.20
2016,07,10,03,55,10.20
2016,07,10,03,56,10.20
2016,07,10,03,57,10.20
2016,07,10,03,58,10.20
2016,07,10,03,59,10.20
2016,07,10,04,00,10.20
2016,07,10,04,01,10.20
2016,07,10,04,02,10.20
2016,07,10,04,03,10.20
2016,07,10,04,04,10.10
2016,07,10,04,05,10.20
2016,07,10,04,06,10.20
2016,07,10,04,07,10.10
2016,07,10,04,08,10.10
2016,07,10,04,09,10.10
2016,07,10,04,10,10.10
2016,07,10,04,11,10.10
2016,07,10,04,12,10.10
2016,07,10,04,13,10.10
2016,07,10,04,14,10.10
2016,07,10,04,15,10.10
2016,07,10,04,16,10.10
2016,07,10,04,17,10.20
2016,07,10,04,18,10.10
2016,07,10,04,19,10.10
2016,07,10,04,20,10.10
2016,07,10,04,21,10.10
2016,07,10,04,22,10.10
2016,07,10,04,23,10.10
2016,07,10,04,24,10.10
2016,07,10,04,25,10.10
2016,07,10,04,26,10.10
2016,07,10,04,27,10.10
2016,07,10,04,28,10.10
2016,07,10,04,29,10.10
2016,07,10,04,30,10.10
2016,07,10,04,31,10.10
2016,07,10,04,32,10.10
2016,07,10,04,33,10.10
2016,07,10,04,34,10.00
2016,07,10,04,35,10.00
2016,07,10,04,36,10.00
2016,07,10,04,37,10.00
2016,07,10,04,38,10.00
2016,07,10,04,39,10.00
2016,07,10,04,40,10.00
2016,07,10,04,41,9.90
2016,07,10,04,42,9.90
2016,07,10,04,43,9.90
2016,07,10,04,44,9.90
2016,07,10,04,45,9.90
2016,07,10,04,46,9.90
2016,07,10,04,47,9.90
2016,07,10,04,48,9.90
2016,07,10,04,49,9.90
2016,07,10,04,50,9.90
2016,07,10,04,51,9.90
2016,07,10,04,52,9.90
2016,07,10,04,53,9.90
2016,07,10,04,54,9.90
2016,07,10,04,55,9.90
2016,07,10,04,56,9.90
2016,07,10,04,57,9.90
2016,07,10,04,58,9.90
2016,07,10,04,59,9.90
2016,07,10,05,00,9.90
2016,07,10,05,01,9.90
2016,07,10,05,02,9.90
2016,07,10,05,03,9.80
2016,07,10,05,04,9.80
2016,07,10,05,05,9.80
2016,07,10,05,06,9.80
2016,07,10,05,07,9.80
2016,07,10,05,08,9.80
2016,07,10,05,09,9.80
2016,07,10,05,10,9.80
2016,07,10,05,11,9.80
2016,07,10,05,12,9.80
2016,07,10,05,13,9.70
2016,07,10,05,14,9.70
2016,07,10,05,15,9.70
2016,07,10,05,16,9.70
2016,07,10,05,17,9.70
2016,07,10,05,18,9.70
2016,07,10,05,19,9.60
2016,07,10,05,20,9.60
2016,07,10,05,21,9.60
2016,07,10,05,22,9.60
2016,07,10,05,23,9.70
2016,07,10,05,24,9.70
2016,07,10,05,25,9.70
2016,07,10,05,26,9.70
2016,07,10,05,27,9.70
2016,07,10,05,28,9.70
2016,07,10,05,29,9.70
2016,07,10,05,30,9.70
2016,07,10,05,31,9.70
2016,07,10,05,32,9.70
2016,07,10,05,33,9.70
2016,07,10,05,34,9.70
2016,07,10,05,35,9.70
2016,07,10,05,36,9.70
2016,07,10,05,37,9.70
2016,07,10,05,38,9.60
2016,07,10,05,39,9.60
2016,07,10,05,40,9.60
2016,07,10,05,41,9.60
2016,07,10,05,42,9.60
2016,07,10,05,43,9.60
2016,07,10,05,44,9.60
2016,07,10,05,45,9.60
2016,07,10,05,46,9.60
2016,07,10,05,47,9.60
2016,07,10,05,48,9.60
2016,07,10,05,49,9.60
2016,07,10,05,50,9.60
2016,07,10,05,51,9.60
2016,07,10,05,52,9.60
2016,07,10,05,53,9.60
2016,07,10,05,54,9.60
2016,07,10,05,55,9.60
2016,07,10,05,56,9.60
2016,07,10,05,57,9.60
2016,07,10,05,58,9.60
2016,07,10,05,59,9.60
2016,07,10,06,00,9.60
2016,07,10,06,01,9.70
2016,07,10,06,02,9.70
2016,07,10,06,03,9.70
2016,07,10,06,04,9.70
2016,07,10,06,05,9.70
2016,07,10,06,06,9.70
2016,07,10,06,07,9.70
2016,07,10,06,08,9.80
2016,07,10,06,09,9.80
2016,07,10,06,10,9.80
2016,07,10,06,11,9.90
2016,07,10,06,12,9.90
2016,07,10,06,13,9.90
2016,07,10,06,14,10.00
2016,07,10,06,15,10.00
2016,07,10,06,16,10.00
2016,07,10,06,17,10.00
2016,07,10,06,18,10.00
2016,07,10,06,19,10.00
2016,07,10,06,20,10.00
2016,07,10,06,21,10.00
2016,07,10,06,22,10.00
2016,07,10,06,23,10.00
2016,07,10,06,24,10.00
2016,07,10,06,25,10.00
2016,07,10,06,26,10.00
2016,07,10,06,27,10.00
2016,07,10,06,28,10.00
2016,07,10,06,29,10.00
2016,07,10,06,30,10.10
2016,07,10,06,31,10.10
2016,07,10,06,32,10.10
2016,07,10,06,33,10.20
2016,07,10,06,34,10.30
2016,07,10,06,35,10.30
2016,07,10,06,36,10.40
2016,07,10,06,37,10.50
2016,07,10,06,38,10.60
2016,07,10,06,39,10.70
2016,07,10,06,40,10.80
2016,07,10,06,41,10.80
2016,07,10,06,42,10.80
2016,07,10,06,43,10.90
2016,07,10,06,44,10.90
2016,07,10,06,45,10.90
2016,07,10,06,46,11.00
2016,07,10,06,47,11.00
2016,07,10,06,48,11.00
2016,07,10,06,49,11.00
2016,07,10,06,50,11.00
2016,07,10,06,51,11.00
2016,07,10,06,52,11.00
2016,07,10,06,53,11.00
2016,07,10,06,54,11.10
2016,07,10,06,55,11.10
2016,07,10,06,56,11.10
2016,07,10,06,57,11.10
2016,07,10,06,58,11.10
2016,07,10,06,59,11.10
2016,07,10,07,00,11.20
2016,07,10,07,01,11.20
2016,07,10,07,02,11.20
2016,07,10,07,03,11.20
2016,07,10,07,04,11.30
2016,07,10,07,05,11.30
2016,07,10,07,06,11.30
2016,07,10,07,07,11.30
2016,07,10,07,08,11.30
2016,07,10,07,09,11.30
2016,07,10,07,10,11.30
2016,07,10,07,11,11.30
2016,07,10,07,12,11.30
2016,07,10,07,13,11.30
2016,07,10,07,14,11.30
2016,07,10,07,15,11.30
2016,07,10,07,16,11.30
2016,07,10,07,17,11.40
2016,07,10,07,18,11.40
2016,07,10,07,19,11.40
2016,07,10,07,20,11.50
2016,07,10,07,21,11.60
2016,07,10,07,22,11.60
2016,07,10,07,23,11.70
2016,07,10,07,24,11.80
2016,07,10,07,25,11.90
2016,07,10,07,26,11.90
2016,07,10,07,27,12.00
2016,07,10,07,28,12.10
2016,07,10,07,29,12.10
2016,07,10,07,30,12.20
2016,07,10,07,31,12.30
2016,07,10,07,32,12.30
2016,07,10,07,33,12.40
2016,07,10,07,34,12.50
2016,07,10,07,35,12.50
2016,07,10,07,36,12.60
2016,07,10,07,37,12.70
2016,07,10,07,38,12.70
2016,07,10,07,39,12.80
2016,07,10,07,40,12.80
2016,07,10,07,41,12.90
2016,07,10,07,42,12.90
2016,07,10,07,43,13.00
2016,07,10,07,44,13.10
2016,07,10,07,45,13.10
2016,07,10,07,46,13.20
2016,07,10,07,47,13.20
2016,07,10,07,48,13.30
2016,07,10,07,49,13.30
2016,07,10,07,50,13.40
2016,07,10,07,51,13.50
2016,07,10,07,52,13.50
2016,07,10,07,53,13.60
2016,07,10,07,54,13.60
2016,07,10,07,55,13.70
2016,07,10,07,56,13.70
2016,07,10,07,57,13.70
2016,07,10,07,58,13.80
2016,07,10,07,59,13.80
2016,07,10,08,00,13.90
2016,07,10,08,01,14.00
2016,07,10,08,02,14.00
2016,07,10,08,03,14.00
2016,07,10,08,04,14.00
2016,07,10,08,05,13.90
2016,07,10,08,06,13.90
2016,07,10,08,07,13.90
2016,07,10,08,08,14.00
2016,07,10,08,09,14.00
2016,07,10,08,10,14.00
2016,07,10,08,11,14.00
2016,07,10,08,12,14.00
2016,07,10,08,13,14.00
2016,07,10,08,14,14.00
2016,07,10,08,15,14.00
2016,07,10,08,16,14.10
2016,07,10,08,17,14.10
2016,07,10,08,18,14.10
2016,07,10,08,19,14.10
2016,07,10,08,20,14.20
2016,07,10,08,21,14.20
2016,07,10,08,22,14.20
2016,07,10,08,23,14.30
2016,07,10,08,24,14.30
2016,07,10,08,25,14.30
2016,07,10,08,26,14.40
2016,07,10,08,27,14.40
2016,07,10,08,28,14.40
2016,07,10,08,29,14.50
2016,07,10,08,30,14.60
2016,07,10,08,31,14.60
2016,07,10,08,32,14.70
2016,07,10,08,33,14.70
2016,07,10,08,34,14.80
2016,07,10,08,35,14.80
2016,07,10,08,36,14.90
2016,07,10,08,37,14.90
2016,07,10,08,38,15.00
2016,07,10,08,39,15.00
2016,07,10,08,40,15.00
2016,07,10,08,41,15.10
2016,07,10,08,42,15.10
2016,07,10,08,43,15.20
2016,07,10,08,44,15.20
2016,07,10,08,45,15.20
2016,07,10,08,46,15.30
2016,07,10,08,47,15.30
2016,07,10,08,48,15.40
2016,07,10,08,49,15.40
2016,07,10,08,50,15.50
2016,07,10,08,51,15.50
2016,07,10,08,52,15.60
2016,07,10,08,53,15.60
2016,07,10,08,54,15.60
2016,07,10,08,55,15.70
2016,07,10,08,56,15.70
2016,07,10,08,57,15.70
2016,07,10,08,58,15.70
2016,07,10,08,59,15.70
2016,07,10,09,00,15.70
2016,07,10,09,01,15.70
2016,07,10,09,02,15.80
2016,07,10,09,03,15.80
2016,07,10,09,04,15.90
2016,07,10,09,05,15.90
2016,07,10,09,06,15.90
2016,07,10,09,07,15.90
2016,07,10,09,08,15.90
2016,07,10,09,09,15.90
2016,07,10,09,10,16.00
2016,07,10,09,11,16.00
2016,07,10,09,12,16.00
2016,07,10,09,13,16.10
2016,07,10,09,14,16.10
2016,07,10,09,15,16.20
2016,07,10,09,16,16.20
2016,07,10,09,17,16.20
2016,07,10,09,18,16.30
2016,07,10,09,19,16.30
2016,07,10,09,20,16.30
2016,07,10,09,21,16.30
2016,07,10,09,22,16.40
2016,07,10,09,23,16.40
2016,07,10,09,24,16.50
2016,07,10,09,25,16.50
2016,07,10,09,26,16.60
2016,07,10,09,27,16.60
2016,07,10,09,28,16.70
2016,07,10,09,29,16.70
2016,07,10,09,30,16.70
2016,07,10,09,31,16.70
2016,07,10,09,32,16.70
2016,07,10,09,33,16.70
2016,07,10,09,34,16.70
2016,07,10,09,35,16.70
2016,07,10,09,36,16.80
2016,07,10,09,37,16.90
2016,07,10,09,38,17.00
2016,07,10,09,39,17.00
2016,07,10,09,40,17.10
2016,07,10,09,41,17.10
2016,07,10,09,42,17.20
2016,07,10,09,43,17.30
2016,07,10,09,44,17.30
2016,07,10,09,45,17.40
2016,07,10,09,46,17.40
2016,07,10,09,47,17.50
2016,07,10,09,48,17.60
2016,07,10,09,49,17.60
2016,07,10,09,50,17.70
2016,07,10,09,51,17.80
2016,07,10,09,52,17.90
2016,07,10,09,53,18.00
2016,07,10,09,54,18.00
2016,07,10,09,55,18.00
2016,07,10,09,56,18.00
2016,07,10,09,57,18.00
2016,07,10,09,58,18.10
2016,07,10,09,59,18.20
2016,07,10,10,00,18.20
2016,07,10,10,01,18.20
2016,07,10,10,02,18.20
2016,07,10,10,03,18.20
2016,07,10,10,04,18.10
2016,07,10,10,05,18.10
2016,07,10,10,06,18.00
2016,07,10,10,07,18.00
2016,07,10,10,08,18.00
2016,07,10,10,09,17.90
2016,07,10,10,10,17.90
2016,07,10,10,11,17.80
2016,07,10,10,12,17.80
2016,07,10,10,13,17.80
2016,07,10,10,14,17.80
2016,07,10,10,15,17.80
2016,07,10,10,16,17.90
2016,07,10,10,17,18.00
2016,07,10,10,18,18.10
2016,07,10,10,19,18.20
2016,07,10,10,20,18.20
2016,07,10,10,21,18.20
2016,07,10,10,22,18.20
2016,07,10,10,23,18.20
2016,07,10,10,24,18.20
2016,07,10,10,25,18.20
2016,07,10,10,26,18.10
2016,07,10,10,27,18.10
2016,07,10,10,28,18.00
2016,07,10,10,29,18.00
2016,07,10,10,30,18.00
2016,07,10,10,31,18.10
2016,07,10,10,32,18.10
2016,07,10,10,33,18.20
2016,07,10,10,34,18.30
2016,07,10,10,35,18.30
2016,07,10,10,36,18.40
2016,07,10,10,37,18.50
2016,07,10,10,38,18.60
2016,07,10,10,39,18.70
2016,07,10,10,40,18.70
2016,07,10,10,41,18.70
2016,07,10,10,42,18.70
2016,07,10,10,43,18.70
2016,07,10,10,44,18.60
2016,07,10,10,45,18.60
2016,07,10,10,46,18.60
2016,07,10,10,47,18.60
2016,07,10,10,48,18.70
2016,07,10,10,49,18.70
2016,07,10,10,50,18.80
2016,07,10,10,51,18.80
2016,07,10,10,52,18.80
2016,07,10,10,53,18.80
2016,07,10,10,54,18.80
2016,07,10,10,55,18.80
2016,07,10,10,56,18.80
2016,07,10,10,57,18.90
2016,07,10,10,58,18.90
2016,07,10,10,59,19.00
2016,07,10,11,00,19.10
2016,07,10,11,01,19.10
2016,07,10,11,02,19.10
2016,07,10,11,03,19.10
2016,07,10,11,04,19.10
2016,07,10,11,05,19.10
2016,07,10,11,06,19.10
2016,07,10,11,07,19.10
2016,07,10,11,08,19.10
2016,07,10,11,09,19.10
2016,07,10,11,10,19.10
2016,07,10,11,11,19.20
2016,07,10,11,12,19.20
2016,07,10,11,13,19.20
2016,07,10,11,14,19.20
2016,07,10,11,15,19.30
2016,07,10,11,16,19.40
2016,07,10,11,17,19.50
2016,07,10,11,18,19.60
2016,07,10,11,19,19.80
2016,07,10,11,20,19.90
2016,07,10,11,21,20.00
2016,07,10,11,22,20.10
2016,07,10,11,23,20.20
2016,07,10,11,24,20.30
2016,07,10,11,25,20.40
2016,07,10,11,26,20.40
2016,07,10,11,27,20.40
2016,07,10,11,28,20.40
2016,07,10,11,29,20.40
2016,07,10,11,30,20.30
2016,07,10,11,31,20.30
2016,07,10,11,32,20.30
2016,07,10,11,33,20.30
2016,07,10,11,34,20.40
2016,07,10,11,35,20.40
2016,07,10,11,36,20.50
2016,07,10,11,37,20.50
2016,07,10,11,38,20.60
2016,07,10,11,39,20.60
2016,07,10,11,40,20.60
2016,07,10,11,41,20.50
2016,07,10,11,42,20.50
2016,07,10,11,43,20.50
2016,07,10,11,44,20.50
2016,07,10,11,45,20.50
2016,07,10,11,46,20.50
2016,07,10,11,47,20.50
2016,07,10,11,48,20.50
2016,07,10,11,49,20.60
2016,07,10,11,50,20.60
2016,07,10,11,51,20.70
2016,07,10,11,52,20.70
2016,07,10,11,53,20.80
2016,07,10,11,54,20.80
2016,07,10,11,55,20.80
2016,07,10,11,56,20.80
2016,07,10,11,57,20.70
2016,07,10,11,58,20.70
2016,07,10,11,59,20.60
2016,07,10,12,00,20.60
2016,07,10,12,01,20.50
2016,07,10,12,02,20.50
2016,07,10,12,03,20.50
2016,07,10,12,04,20.40
2016,07,10,12,05,20.40
2016,07,10,12,06,20.50
2016,07,10,12,07,20.50
2016,07,10,12,08,20.50
2016,07,10,12,09,20.50
2016,07,10,12,10,20.50
2016,07,10,12,11,20.50
2016,07,10,12,12,20.40
2016,07,10,12,13,20.40
2016,07,10,12,14,20.30
2016,07,10,12,15,20.30
2016,07,10,12,16,20.30
2016,07,10,12,17,20.30
2016,07,10,12,18,20.20
2016,07,10,12,19,20.20
2016,07,10,12,20,20.20
2016,07,10,12,21,20.10
2016,07,10,12,22,20.10
2016,07,10,12,23,20.10
2016,07,10,12,24,20.10
2016,07,10,12,25,20.10
2016,07,10,12,26,20.00
2016,07,10,12,27,20.00
2016,07,10,12,28,20.00
2016,07,10,12,29,19.90
2016,07,10,12,30,19.90
2016,07,10,12,31,19.90
2016,07,10,12,32,19.90
2016,07,10,12,33,19.90
2016,07,10,12,34,19.90
2016,07,10,12,35,19.90
2016,07,10,12,36,19.90
2016,07,10,12,37,19.90
2016,07,10,12,38,20.00
2016,07,10,12,39,19.90
2016,07,10,12,40,19.90
2016,07,10,12,41,19.90
2016,07,10,12,42,19.90
2016,07,10,12,43,19.90
2016,07,10,12,44,19.90
2016,07,10,12,45,19.80
2016,07,10,12,46,19.80
2016,07,10,12,47,19.80
2016,07,10,12,48,19.70
2016,07,10,12,49,19.70
2016,07,10,12,50,19.70
2016,07,10,12,51,19.70
2016,07,10,12,52,19.80
2016,07,10,12,53,19.80
2016,07,10,12,54,19.80
2016,07,10,12,55,19.80
2016,07,10,12,56,19.90
2016,07,10,12,57,19.90
2016,07,10,12,58,19.90
2016,07,10,12,59,19.90
2016,07,10,13,00,20.00
2016,07,10,13,01,20.00
2016,07,10,13,02,20.00
2016,07,10,13,03,20.00
2016,07,10,13,04,20.00
2016,07,10,13,05,20.00
2016,07,10,13,06,20.00
2016,07,10,13,07,20.00
2016,07,10,13,08,20.00
2016,07,10,13,09,19.90
2016,07,10,13,10,19.90
2016,07,10,13,11,19.90
2016,07,10,13,12,19.80
2016,07,10,13,13,19.90
2016,07,10,13,14,19.90
2016,07,10,13,15,19.90
2016,07,10,13,16,20.00
2016,07,10,13,17,20.00
2016,07,10,13,18,20.10
2016,07,10,13,19,20.10
2016,07,10,13,20,20.20
2016,07,10,13,21,20.30
2016,07,10,13,22,20.30
2016,07,10,13,23,20.30
2016,07,10,13,24,20.40
2016,07,10,13,25,20.40
2016,07,10,13,26,20.30
2016,07,10,13,27,20.30
2016,07,10,13,28,20.30
2016,07,10,13,29,20.30
2016,07,10,13,30,20.30
2016,07,10,13,31,20.30
2016,07,10,13,32,20.30
2016,07,10,13,33,20.40
2016,07,10,13,34,20.40
2016,07,10,13,35,20.40
2016,07,10,13,36,20.40
2016,07,10,13,37,20.40
2016,07,10,13,38,20.40
2016,07,10,13,39,20.40
2016,07,10,13,40,20.40
2016,07,10,13,41,20.40
2016,07,10,13,42,20.40
2016,07,10,13,43,20.40
2016,07,10,13,44,20.40
2016,07,10,13,45,20.30
2016,07,10,13,46,20.30
2016,07,10,13,47,20.40
2016,07,10,13,48,20.40
2016,07,10,13,49,20.40
2016,07,10,13,50,20.50
2016,07,10,13,51,20.60
2016,07,10,13,52,20.70
2016,07,10,13,53,20.70
2016,07,10,13,54,20.80
2016,07,10,13,55,20.80
2016,07,10,13,56,20.80
2016,07,10,13,57,20.90
2016,07,10,13,58,20.90
2016,07,10,13,59,20.90
2016,07,10,14,00,20.90
2016,07,10,14,01,20.90
2016,07,10,14,02,20.90
2016,07,10,14,03,20.90
2016,07,10,14,04,21.00
2016,07,10,14,05,21.00
2016,07,10,14,06,21.00
2016,07,10,14,07,21.00
2016,07,10,14,08,21.10
2016,07,10,14,09,21.10
2016,07,10,14,10,21.10
2016,07,10,14,11,21.00
2016,07,10,14,12,21.00
2016,07,10,14,13,21.00
2016,07,10,14,14,21.10
2016,07,10,14,15,21.10
2016,07,10,14,16,21.20
2016,07,10,14,17,21.30
2016,07,10,14,18,21.30
2016,07,10,14,19,21.40
2016,07,10,14,20,21.50
2016,07,10,14,21,21.50
2016,07,10,14,22,21.60
2016,07,10,14,23,21.60
2016,07,10,14,24,21.60
2016,07,10,14,25,21.60
2016,07,10,14,26,21.60
2016,07,10,14,27,21.60
2016,07,10,14,28,21.60
2016,07,10,14,29,21.60
2016,07,10,14,30,21.50
2016,07,10,14,31,21.50
2016,07,10,14,32,21.50
2016,07,10,14,33,21.50
2016,07,10,14,34,21.40
2016,07,10,14,35,21.40
2016,07,10,14,36,21.30
2016,07,10,14,37,21.20
2016,07,10,14,38,21.20
2016,07,10,14,39,21.20
2016,07,10,14,40,21.10
2016,07,10,14,41,21.10
2016,07,10,14,42,21.10
2016,07,10,14,43,21.10
2016,07,10,14,44,21.10
2016,07,10,14,45,21.10
2016,07,10,14,46,21.10
2016,07,10,14,47,21.10
2016,07,10,14,48,21.10
2016,07,10,14,49,21.10
2016,07,10,14,50,21.00
2016,07,10,14,51,21.00
2016,07,10,14,52,20.90
2016,07,10,14,53,20.90
2016,07,10,14,54,20.90
2016,07,10,14,55,20.90
2016,07,10,14,56,20.90
2016,07,10,14,57,20.80
2016,07,10,14,58,20.80
2016,07,10,14,59,20.80
2016,07,10,15,00,20.70
2016,07,10,15,01,20.70
2016,07,10,15,02,20.70
2016,07,10,15,03,20.70
2016,07,10,15,04,20.70
2016,07,10,15,05,20.60
2016,07,10,15,06,20.60
2016,07,10,15,07,20.60
2016,07,10,15,08,20.60
2016,07,10,15,09,20.50
2016,07,10,15,10,20.50
2016,07,10,15,11,20.40
2016,07,10,15,12,20.40
2016,07,10,15,13,20.30
2016,07,10,15,14,20.30
2016,07,10,15,15,20.20
2016,07,10,15,16,20.20
2016,07,10,15,17,20.20
2016,07,10,15,18,20.10
2016,07,10,15,19,20.10
2016,07,10,15,20,20.10
2016,07,10,15,21,20.10
2016,07,10,15,22,20.10
2016,07,10,15,23,20.10
2016,07,10,15,24,20.10
2016,07,10,15,25,20.10
2016,07,10,15,26,20.20
2016,07,10,15,27,20.20
2016,07,10,15,28,20.30
2016,07,10,15,29,20.30
2016,07,10,15,30,20.30
2016,07,10,15,31,20.30
2016,07,10,15,32,20.30
2016,07,10,15,33,20.30
2016,07,10,15,34,20.30
2016,07,10,15,35,20.30
2016,07,10,15,36,20.30
2016,07,10,15,37,20.20
2016,07,10,15,38,20.20
2016,07,10,15,39,20.20
2016,07,10,15,40,20.20
2016,07,10,15,41,20.30
2016,07,10,15,42,20.30
2016,07,10,15,43,20.30
2016,07,10,15,44,20.40
2016,07,10,15,45,20.50
2016,07,10,15,46,20.50
2016,07,10,15,47,20.60
2016,07,10,15,48,20.60
2016,07,10,15,49,20.60
2016,07,10,15,50,20.70
2016,07,10,15,51,20.70
2016,07,10,15,52,20.70
2016,07,10,15,53,20.80
2016,07,10,15,54,20.80
2016,07,10,15,55,20.80
2016,07,10,15,56,20.90
2016,07,10,15,57,20.90
2016,07,10,15,58,21.00
2016,07,10,15,59,21.10
2016,07,10,16,00,21.10
2016,07,10,16,01,21.10
2016,07,10,16,02,21.10
2016,07,10,16,03,21.10
2016,07,10,16,04,21.10
2016,07,10,16,05,21.10
2016,07,10,16,06,21.10
2016,07,10,16,07,21.10
2016,07,10,16,08,21.10
2016,07,10,16,09,21.10
2016,07,10,16,10,21.10
2016,07,10,16,11,21.00
2016,07,10,16,12,21.00
2016,07,10,16,13,21.00
2016,07,10,16,14,20.90
2016,07,10,16,15,20.90
2016,07,10,16,16,20.90
2016,07,10,16,17,20.90
2016,07,10,16,18,20.80
2016,07,10,16,19,20.80
2016,07,10,16,20,20.80
2016,07,10,16,21,20.80
2016,07,10,16,22,20.80
2016,07,10,16,23,20.70
2016,07,10,16,24,20.70
2016,07,10,16,25,20.60
2016,07,10,16,26,20.60
2016,07,10,16,27,20.60
2016,07,10,16,28,20.60
2016,07,10,16,29,20.60
2016,07,10,16,30,20.60
2016,07,10,16,31,20.60
2016,07,10,16,32,20.60
2016,07,10,16,33,20.60
2016,07,10,16,34,20.60
2016,07,10,16,35,20.70
2016,07,10,16,36,20.70
2016,07,10,16,37,20.70
2016,07,10,16,38,20.80
2016,07,10,16,39,20.80
2016,07,10,16,40,20.90
2016,07,10,16,41,20.90
2016,07,10,16,42,20.90
2016,07,10,16,43,21.00
2016,07,10,16,44,21.00
2016,07,10,16,45,21.00
2016,07,10,16,46,21.00
2016,07,10,16,47,21.10
2016,07,10,16,48,21.10
2016,07,10,16,49,21.10
2016,07,10,16,50,21.10
2016,07,10,16,51,21.10
2016,07,10,16,52,21.10
2016,07,10,16,53,21.10
2016,07,10,16,54,21.10
2016,07,10,16,55,21.10
2016,07,10,16,56,21.10
2016,07,10,16,57,21.10
2016,07,10,16,58,21.10
2016,07,10,16,59,21.10
2016,07,10,17,00,21.10
2016,07,10,17,01,21.10
2016,07,10,17,02,21.10
2016,07,10,17,03,21.10
2016,07,10,17,04,21.10
2016,07,10,17,05,21.10
2016,07,10,17,06,21.10
2016,07,10,17,07,21.10
2016,07,10,17,08,21.10
2016,07,10,17,09,21.10
2016,07,10,17,10,21.10
2016,07,10,17,11,21.10
2016,07,10,17,12,21.00
2016,07,10,17,13,21.00
2016,07,10,17,14,21.00
2016,07,10,17,15,21.00
2016,07,10,17,16,21.00
2016,07,10,17,17,21.00
2016,07,10,17,18,20.90
2016,07,10,17,19,20.90
2016,07,10,17,20,20.90
2016,07,10,17,21,20.90
2016,07,10,17,22,20.90
2016,07,10,17,23,20.90